Overview Statistics Trail Chart Weather Telemetry Raw packets
 

This is the latest recevied weather packets stored in our database for station/object SV9FBP-13. If no packets are shown the sender has not sent any weather packets the latest 10 day(s).

<< 33 34 35 36 37 38 >>
Time Temp. Humidity Pressure Rain* Wind** Luminosity Snow
1787878220 30° C 41% 1008 hPa 0 mm - - -
1787877317 30° C 41% 1008.1 hPa 0 mm - - -
1787876415 30° C 41% 1008.2 hPa 0 mm - - -
1787875513 30° C 41% 1008.5 hPa 0 mm - - -
1787874611 30° C 41% 1008.4 hPa 0 mm - - -
1787873709 30° C 41% 1008.5 hPa 0 mm - - -
1787872806 29.44° C 42% 1008.9 hPa 0 mm - - -
1787871904 30° C 42% 1009.3 hPa 0 mm - - -
1787871002 30° C 41% 1009.5 hPa 0 mm - - -
1787870100 30° C 42% 1009.6 hPa 0 mm - - -
1787869198 29.44° C 43% 1009.6 hPa 0 mm - - -
1787868296 30° C 45% 1009.7 hPa 0 mm - - -
1787867394 30° C 44% 1009.8 hPa 0 mm - - -
1787866491 30° C 43% 1010 hPa 0 mm - - -
1787865589 30.56° C 42% 1009.7 hPa 0 mm - - -
1787864688 30.56° C 42% 1009.8 hPa 0 mm - - -
1787863785 30.56° C 41% 1009.7 hPa 0 mm - - -
1787862882 30.56° C 41% 1009.6 hPa 0 mm - - -
1787861980 31.11° C 40% 1009.8 hPa 0 mm - - -
1787861079 29.44° C 48% 1009.8 hPa 0 mm - - -
1787860177 29.44° C 49% 1009.8 hPa 0 mm - - -
1787859274 30° C 46% 1009.9 hPa 0 mm - - -
1787858372 30.56° C 44% 1009.9 hPa 0 mm - - -
1787857469 30.56° C 44% 1009.5 hPa 0 mm - - -
1787856567 30.56° C 44% 1009.6 hPa 0 mm - - -

* Rain latest hour (hover to see other rain measurements)
** Current wind speed in m/s (hover to see current wind gust speed)